User: anonymous   Login
Location: Aix-en-Ergny
(50.5839°N, 1.9996°E)
Time: 07:42:48
(UTC+00:00)
Language:

Meteor 1-4 Rocket - Orbit

View from above orbital plane
View from above orbital plane
View from above satellite
View from above satellite

Ground track
Ground track

The orbit data is extracted from the following two-line orbital elements,

1  4394U 70037B   19347.89385849 +.00000690 +00000-0 +22466-4 0  9994
2  4394 081.2421 025.2877 0037892 253.0283 106.6799 15.29679898704242
Epoch (UTC): 13 December 2019 21:27:09
Eccentricity: 0.0037892
inclination: 81.2421°
perigee height: 451 km
apogee height: 503 km
right ascension of ascending node: 25.2877°
argument of perigee: 253.0283°
revolutions per day: 15.29679898
mean anomaly at epoch: 106.6799°
orbit number at epoch: 70424

The dashed part of the orbit path shows where the satellite is in the earth's shadow,  

DLR